Weather History for International Falls, MN

Change the Weather History Date:

Saturday, November 16, 2013

  Actual Average Record
Temperature  
Mean Temperature 42 °F 25 °F  
Max Temperature 46 °F 33 °F 59 °F (1953)
Min Temperature 37 °F 17 °F -8 °F (1959)
Degree Days  
Heating Degree Days 23 40  
Month to date heating degree days 547 563  
Since 1 July heating degree days 1715 1840  
Cooling Degree Days 0 0  
Month to date cooling degree days 0 0  
Year to date cooling degree days 224 192  
Moisture  
Dew Point 36 °F    
Average Humidity 85    
Maximum Humidity 100    
Minimum Humidity 70    
Precipitation  
Precipitation T in 0.05 in 0.79 in (1996)
Month to date precipitation 0.68 0.83  
Year to date precipitation 29.87 22.86  
Snow  
Snow 0.00 in 0.50 in 8.00 in (1988)
Month to date snowfall 4.7 6.1  
Since 1 July snowfall 6.3 8.4  
Since 1 September snowfall 6.3 8.4  
Snow Depth T in    
Sea Level Pressure  
Sea Level Pressure 29.39 in    
Wind  
Wind Speed 4 mph (ESE)    
Max Wind Speed 13 mph    
Max Gust Speed 20 mph    
Visibility 8 miles    
Events Rain    
T = Trace of Precipitation, MM = Missing Value Source: NWS Daily Summary

Daily Weather History Graph

Daily Weather History Graph

Search for Another Location

Airport:

Trip Planner

Search our weather history database for the weather conditions in past years. The results will help you decide how hot, cold, wet, or windy it might be!

Date:

Astronomy

Nov. 16, 2013 Rise Set
Actual Time 7:23 AM CST 4:32 PM CST
Civil Twilight 6:49 AM CST 5:07 PM CST
Nautical Twilight 6:10 AM CST 5:45 PM CST
Astronomical Twilight 5:33 AM CST 6:22 PM CST
Moon 4:11 PM CST (11/16) 6:16 AM CST (11/16)
Length of Visible Light 10h 17m
Length of Day
9h 08m
Waxing Gibbous, 99% of the Moon is Illuminated
Nov 16
Waxing Gibbous
Nov 17
Full
Nov 25
Last Quarter
Dec 2
New
Dec 9
First Quarter

Hourly Weather History & Observations

Time (CST) Temp. Windchill Dew Point Humidity Pressure Visibility Wind Dir Wind Speed Gust Speed Precip Events Conditions
12:55 AM 42.1 °F 38.4 °F 35.1 °F 76% 29.49 in 10.0 mi SSE 5.8 mph - N/A   Scattered Clouds
1:55 AM 43.0 °F 38.8 °F 35.1 °F 74% 29.47 in 10.0 mi Variable 6.9 mph - N/A   Overcast
2:55 AM 42.1 °F 37.1 °F 35.1 °F 76% 29.44 in 10.0 mi SSE 8.1 mph - N/A   Partly Cloudy
3:55 AM 41.0 °F 37.1 °F 35.1 °F 79% 29.43 in 10.0 mi Variable 5.8 mph - N/A   Clear
4:55 AM 39.9 °F 35.8 °F 34.0 °F 79% 29.43 in 10.0 mi SSE 5.8 mph - N/A   Clear
5:55 AM 39.9 °F 36.7 °F 34.0 °F 79% 29.42 in 10.0 mi SSE 4.6 mph - N/A   Mostly Cloudy
6:55 AM 37.9 °F 34.4 °F 33.1 °F 83% 29.42 in 10.0 mi SSE 4.6 mph - N/A   Clear
7:55 AM 37.0 °F 33.3 °F 33.1 °F 86% 29.43 in 9.0 mi SSE 4.6 mph - N/A   Clear
8:55 AM 39.9 °F 35.8 °F 35.1 °F 83% 29.43 in 10.0 mi Variable 5.8 mph - N/A   Clear
9:55 AM 42.1 °F 37.7 °F 35.1 °F 76% 29.42 in 10.0 mi Variable 6.9 mph 19.6 mph N/A   Clear
10:55 AM 42.1 °F 38.4 °F 35.1 °F 76% 29.42 in 10.0 mi Variable 5.8 mph - N/A   Overcast
11:55 AM 44.1 °F 40.8 °F 36.0 °F 73% 29.42 in 10.0 mi SSW 5.8 mph - N/A   Overcast
12:55 PM 45.0 °F 43.5 °F 37.0 °F 74% 29.41 in 10.0 mi South 3.5 mph - N/A   Overcast
1:41 PM 44.6 °F 42.2 °F 37.4 °F 76% 29.37 in 10.0 mi SSE 4.6 mph - N/A   Mostly Cloudy
1:55 PM 46.0 °F 44.8 °F 37.0 °F 71% 29.39 in 10.0 mi Variable 3.5 mph - N/A   Overcast
2:37 PM 46.4 °F - 37.4 °F 71% 29.34 in 10.0 mi Calm Calm - N/A   Partly Cloudy
2:55 PM 45.0 °F - 37.0 °F 74% 29.36 in 10.0 mi Calm Calm - N/A   Clear
3:34 PM 42.8 °F 40.1 °F 37.4 °F 81% 29.35 in 10.0 mi SE 4.6 mph - N/A   Mostly Cloudy
3:55 PM 44.1 °F 40.8 °F 37.0 °F 76% 29.37 in 9.0 mi ESE 5.8 mph - N/A   Overcast
4:55 PM 43.0 °F - 37.0 °F 80% 29.38 in 10.0 mi Calm Calm - N/A   Overcast
5:32 PM 42.8 °F 41.1 °F 37.4 °F 81% 29.34 in 10.0 mi East 3.5 mph - N/A   Overcast
5:55 PM 42.1 °F - 37.0 °F 82% 29.37 in 9.0 mi Calm Calm - N/A   Overcast
6:33 PM 41.0 °F 39.0 °F 37.4 °F 87% 29.33 in 7.0 mi East 3.5 mph - N/A   Overcast
6:55 PM 41.0 °F - 37.0 °F 86% 29.36 in 7.0 mi Calm Calm - N/A   Overcast
7:55 PM 41.0 °F - 37.9 °F 89% 29.37 in 2.0 mi Calm Calm - N/A   Overcast
8:05 PM 41.0 °F 38.0 °F 39.2 °F 93% 29.32 in 1.5 mi NE 4.6 mph - N/A   Overcast
8:55 PM 39.9 °F 36.7 °F 39.0 °F 97% 29.35 in 1.5 mi NE 4.6 mph - N/A   Overcast
9:14 PM 39.2 °F 35.0 °F 39.2 °F 100% 29.31 in 1.2 mi NE 5.8 mph - N/A   Overcast
9:55 PM 39.9 °F 35.8 °F 37.9 °F 93% 29.33 in 1.8 mi ENE 5.8 mph - 0.00 in Rain Light Rain
10:55 PM 39.9 °F 36.7 °F 39.0 °F 97% 29.33 in 1.2 mi ENE 4.6 mph - 0.00 in Rain Light Rain
11:55 PM 39.9 °F 36.7 °F 37.9 °F 93% 29.32 in 1.0 mi ENE 4.6 mph - 0.00 in   Overcast